Flag for Switzerland Weather past 2 weeks in Delémont, Jura, Switzerland

Now
43 °F

Quite cool.


Feels Like: 40 °F
Forecast: 44 / 60 °F
Wind: 5 mph from West

Location: Grenchen


UV Index: 0 (Low)

Visibility: N/A


Pressure: 29.79 "Hg

Humidity: 92%

Dew point: 40 °F

Location of DelémontLocation

Historic Weather in Delémont

°F

Delémont temperature yesterday

Maximum temperature yesterday: 46 °F (at 8:00 PM)
Minimum temperature yesterday: 32 °F (at 1:00 AM)
Average temperature yesterday: 40 °F

Past Weeks' High & Low Weather Summary

 TemperatureHumidityPressure
High69 °F (Apr 11, 6:00 PM)99% (Apr 7, 6:00 AM)30.37 "Hg (Apr 7, 6:00 AM)
Low31 °F (Apr 16, 7:00 AM)27% (Apr 16, 4:00 PM)29.79 "Hg (Apr 20, 1:00 AM)
Average51 °F67%30.10 "Hg
* Reported Apr 5 2:00 AM — Apr 20 2:00 AM, Delémont, Weather by CustomWeather, © 2014

Note: Actual official high and low records may vary slightly from our data, if they occured in-between our weather recording intervals... More about our weather records

Advertising

Historic Weather Conditions — Data for Previous 24 hours

 ConditionsComfort  
Time TempWeatherWind HumidityBarometerVisibility
2:00 AM
Apr 20
43 °FQuite cool.1 mph92%29.79 "HgN/A
1:00 AM43 °FQuite cool.3 mph92%29.79 "HgN/A
12:00 AM43 °FQuite cool.3 mph93%29.81 "HgN/A
11:00 PM
Apr 19
43 °FQuite cool.1 mph90%29.81 "HgN/A
10:00 PM44 °FQuite cool.2 mph88%29.83 "HgN/A
9:00 PM44 °FQuite cool.1 mph86%29.83 "HgN/A
8:00 PM46 °FCool.2 mph77%29.83 "HgN/A
7:00 PM45 °FCool.2 mph79%29.82 "HgN/A
6:00 PM45 °FCool.5 mph78%29.83 "HgN/A
5:00 PM45 °FCool.5 mph77%29.82 "HgN/A
4:00 PM44 °FQuite cool.9 mph79%29.83 "HgN/A
3:00 PM44 °FQuite cool.6 mph78%29.84 "HgN/A
2:00 PM42 °FQuite cool.10 mph83%29.86 "HgN/A
1:00 PM42 °FQuite cool.9 mph81%29.86 "HgN/A
12:00 PM41 °FQuite cool.14 mph82%29.86 "HgN/A
11:00 AM41 °FQuite cool.15 mph81%29.86 "HgN/A
10:00 AM41 °FQuite cool.9 mph82%29.86 "HgN/A
9:00 AM40 °FQuite cool.7 mph86%29.86 "HgN/A
8:00 AM38 °FChilly.6 mph93%29.88 "HgN/A
7:00 AM37 °FChilly.3 mph95%29.88 "HgN/A
6:00 AM36 °FChilly.3 mph97%29.90 "HgN/A
5:00 AM35 °FChilly.6 mph98%29.91 "HgN/A
4:00 AM34 °FChilly.9 mph98%29.93 "HgN/A
3:00 AM35 °FChilly.6 mph98%29.93 "HgN/A
Weather by CustomWeather, © 2014

See weather overview